Location: Bern�tre
(50.1974°N, 2.0915°E)
Time: 05:43:47
(UTC+00:00)

Meteor 2-11 Rocket - Pass Details

Date: 18 September 2020
Orbit: 939 x 957 km, 82.5° (Epoch: 22 October)

Event Time Altitude Azimuth Distance (km) Brightness Sun altitude
Rises 18:44:39 0° 186° (S) 3,620 7.4 -8.3°
Reaches altitude 10° 18:47:07 10° 186° (S) 2,680 6.7 -8.6°
Maximum altitude 18:53:16 85° 99° (E) 968 4.5 -9.6°
Drops below altitude 10° 18:59:28 10° 11° (N) 2,701 6.9 -10.6°
Sets 19:01:59 0° 11° (NNE) 3,650 7.6 -11.0°
